User: anonymous   Login
Location: Writing-on-Stone Provincial Park
(49.0825°N, 111.6163°W)
Time: 23:27:18
(UTC-06:00)
Language:

BREEZE-M DEB (TANK) - Orbit

View from above orbital plane
View from above orbital plane
View from above satellite
View from above satellite

Ground track
Ground track

The orbit data is extracted from the following two-line orbital elements,

1 29649U 06056B   18174.54180936 +.00001538 +00000-0 +22639-3 0  9996
2 29649 049.5055 321.0366 5384093 034.0786 351.0125 05.00781138206368
Epoch (UTC): 23 June 2018 13:00:12
Eccentricity: 0.5384093
inclination: 49.5055°
perigee height: 283 km
apogee height: 15823 km
right ascension of ascending node: 321.0366°
argument of perigee: 34.0786°
revolutions per day: 5.00781138
mean anomaly at epoch: 351.0125°
orbit number at epoch: 20636

The dashed part of the orbit path shows where the satellite is in the earth's shadow,  

DLR